FW8291 Weather Reports


time (UTC)temp
C
wind
direction
speed
KPH
gust
KPH
rain 1hr
cm
rain 24hr
cm
rain mn
cm
humidity
%
barometer
mb
20260507075701 11 358 1.6 3.2 0.00 0.00 0.00 90 1018.4
20260507075202 11 344 0.0 0.0 0.00 0.00 0.00 90 1018.4
20260507074929 11 344 0.0 0.0 0.00 0.00 0.00 90 1018.5
20260507074203 11 344 0.0 0.0 0.00 0.00 0.00 90 1018.5
20260507073700 11 344 0.0 0.0 0.00 0.00 0.00 90 1018.4
20260507073203 12 344 0.0 0.0 0.00 0.00 0.00 90 1018.4
20260507072700 12 344 0.0 0.0 0.00 0.00 0.00 90 1018.4
20260507072202 12 344 0.0 1.6 0.00 0.00 0.00 90 1018.4
20260507071700 12 344 0.0 1.6 0.00 0.00 0.00 90 1018.4
20260507071201 12 307 0.0 0.0 0.00 0.00 0.00 90 1018.4
20260507070700 12 307 0.0 0.0 0.00 0.00 0.00 90 1018.4
20260507070201 12 307 0.0 0.0 0.00 0.00 0.00 90 1018.5
20260507065659 12 296 0.0 0.0 0.00 0.00 0.00 90 1018.5
20260507065200 12 344 0.0 0.0 0.00 0.00 0.00 90 1018.5
20260507064659 12 344 0.0 0.0 0.00 0.00 0.00 90 1018.5
20260507064200 12 344 0.0 0.0 0.00 0.00 0.00 90 1018.5
20260507063658 12 344 0.0 3.2 0.00 0.00 0.00 90 1018.5
20260507063200 12 341 0.0 3.2 0.00 0.00 0.00 90 1018.5
20260507062659 12 343 0.0 1.6 0.00 0.00 0.00 90 1018.4
20260507062422 12 266 0.0 0.0 0.00 0.00 0.00 90 1018.4
20260507061658 12 292 0.0 3.2 0.00 0.00 0.00 90 1018.5
20260507061159 12 292 0.0 3.2 0.00 0.00 0.00 90 1018.5
20260507060700 12 11 0.0 1.6 0.00 0.00 0.00 90 1018.5
20260507060200 12 241 0.0 0.0 0.00 0.00 0.00 90 1018.5
20260507055658 12 354 0.0 0.0 0.00 0.00 0.00 90 1018.5
20260507055200 12 354 0.0 0.0 0.00 0.00 0.00 90 1018.5
20260507054658 12 354 0.0 0.0 0.00 0.00 0.00 90 1018.5
20260507054159 12 354 0.0 0.0 0.00 0.00 0.00 90 1018.5
20260507053923 12 354 0.0 3.2 0.00 0.00 0.00 90 1018.5
20260507053159 12 354 0.0 3.2 0.00 0.00 0.00 90 1018.4
20260507052656 12 345 0.0 0.0 0.00 0.00 0.00 90 1018.6
20260507052158 12 345 0.0 0.0 0.00 0.00 0.00 90 1018.6
20260507051657 12 345 0.0 0.0 0.00 0.00 0.00 90 1018.7
20260507051158 12 345 0.0 1.6 0.00 0.00 0.00 90 1018.7
20260507050656 12 345 0.0 3.2 0.00 0.00 0.00 90 1018.7
20260507050158 12 355 0.0 3.2 0.00 0.00 0.00 90 1018.6
20260507045657 12 7 0.0 1.6 0.00 0.00 0.00 90 1018.6
20260507045158 12 252 0.0 0.0 0.00 0.00 0.00 90 1018.7
20260507044656 12 340 0.0 1.6 0.00 0.00 0.00 90 1018.7
20260507044158 12 341 0.0 1.6 0.00 0.00 0.00 90 1018.7
20260507043656 12 285 0.0 0.0 0.00 0.00 0.00 90 1018.7
20260507043157 12 292 0.0 0.0 0.00 0.00 0.00 90 1018.7
20260507042917 12 292 0.0 0.0 0.00 0.00 0.00 90 1018.7
20260507042158 12 292 0.0 1.6 0.00 0.00 0.00 90 1018.6
20260507041656 12 293 0.0 1.6 0.00 0.00 0.00 90 1018.6
20260507041157 12 290 0.0 1.6 0.00 0.00 0.00 90 1018.6
20260507040655 12 269 0.0 1.6 0.00 0.00 0.00 90 1018.5
20260507040157 12 7 0.0 0.0 0.00 0.00 0.00 90 1018.5
20260507040141 12 7 0.0 0.0 0.00 0.00 0.00 90 1018.5
20260507035157 12 252 0.0 1.6 0.00 0.00 0.00 89 1018.4
20260507034915 12 252 0.0 1.6 0.00 0.00 0.00 89 1018.3
20260507034157 12 245 0.0 3.2 0.00 0.00 0.00 89 1018.4
20260507033655 12 334 0.0 3.2 0.00 0.00 0.00 89 1018.5
20260507033156 12 345 0.0 1.6 0.00 0.00 0.00 89 1018.4
20260507032655 12 313 0.0 3.2 0.00 0.00 0.00 89 1018.4
20260507032157 12 354 0.0 3.2 0.00 0.00 0.00 89 1018.3
20260507031653 12 262 0.0 3.2 0.00 0.00 0.00 89 1018.2
20260507031156 12 268 0.0 3.2 0.00 0.00 0.00 89 1018.2
20260507031139 12 269 0.0 3.2 0.00 0.00 0.00 89 1018.2
20260507030155 13 355 0.0 1.6 0.00 0.00 0.00 89 1018.1
20260507025655 13 290 0.0 1.6 0.00 0.00 0.00 89 1018.1
20260507025156 13 345 0.0 1.6 0.00 0.00 0.00 89 1018.1
20260507024653 13 3 0.0 4.8 0.00 0.00 0.00 89 1018.0
20260507024154 13 348 0.0 4.8 0.00 0.00 0.00 89 1018.0
20260507023654 13 345 1.6 3.2 0.00 0.00 0.00 88 1018.0
20260507023154 13 333 0.0 1.6 0.00 0.00 0.00 88 1018.0
20260507022653 13 348 0.0 1.6 0.00 0.00 0.00 88 1018.0
20260507022418 13 303 0.0 1.6 0.00 0.00 0.00 88 1018.0
20260507021653 13 310 0.0 1.6 0.00 0.00 0.00 88 1017.9
20260507021414 13 300 0.0 3.2 0.00 0.00 0.00 88 1018.0
20260507020653 13 320 1.6 3.2 0.00 0.00 0.00 88 1018.0
20260507020153 13 20 0.0 3.2 0.00 0.00 0.00 88 1018.1
20260507015653 13 350 0.0 3.2 0.00 0.00 0.00 88 1018.1
20260507015153 13 336 0.0 3.2 0.00 0.00 0.00 87 1018.1
20260507014652 13 348 0.0 1.6 0.00 0.00 0.00 87 1018.1
20260507014153 13 338 0.0 1.6 0.00 0.00 0.00 87 1018.1
20260507013652 13 278 0.0 3.2 0.00 0.00 0.00 87 1018.2
20260507013154 13 351 0.0 3.2 0.00 0.00 0.00 87 1018.2
20260507012652 13 321 0.0 4.8 0.00 0.00 0.00 87 1018.2
20260507012153 13 0 1.6 4.8 0.00 0.00 0.00 87 1018.1
20260507011650 13 343 1.6 4.8 0.00 0.00 0.00 87 1018.2
20260507011153 13 216 0.0 4.8 0.00 0.00 0.00 87 1018.2
20260507010651 13 338 0.0 4.8 0.00 0.00 0.00 86 1018.1
20260507010153 13 330 0.0 3.2 0.00 0.00 0.00 86 1018.2
20260507005652 13 275 0.0 3.2 0.00 0.00 0.00 86 1018.2
20260507005647 13 334 0.0 3.2 0.00 0.00 0.00 86 1018.1
20260507004651 14 343 0.0 4.8 0.00 0.00 0.00 86 1018.2
20260507004152 14 343 1.6 4.8 0.00 0.00 0.00 86 1018.1
20260507003649 14 330 0.0 4.8 0.00 0.00 0.00 86 1018.0
20260507003151 14 321 0.0 4.8 0.00 0.00 0.00 86 1018.1
20260507002651 14 340 0.0 4.8 0.00 0.00 0.00 86 1018.0
20260507002151 14 285 0.0 4.8 0.00 0.00 0.00 85 1018.1
20260507001650 14 314 0.0 3.2 0.00 0.00 0.00 85 1018.2
20260507001151 14 275 0.0 3.2 0.00 0.00 0.00 85 1018.1
20260507000650 14 326 0.0 3.2 0.00 0.00 0.00 85 1018.2
20260507000151 14 295 1.6 3.2 0.00 0.00 0.00 85 1018.1
20260506235650 15 336 0.0 3.2 0.00 0.00 0.00 85 1018.1
20260506235151 15 348 1.6 3.2 0.00 0.00 0.00 85 1018.1
20260506234649 15 331 0.0 3.2 0.00 0.00 0.00 85 1018.2
20260506234151 15 350 1.6 3.2 0.00 0.00 0.00 84 1018.2
20260506233649 15 307 0.0 3.2 0.00 0.00 0.00 84 1018.1
20260506233150 15 296 0.0 3.2 0.00 0.00 0.00 84 1018.2
20260506232649 15 358 0.0 3.2 0.00 0.00 0.00 84 1018.2
20260506232151 15 345 0.0 8.0 0.00 0.00 0.00 84 1018.2
20260506231919 15 327 0.0 8.0 0.00 0.00 0.00 83 1018.2
20260506231148 15 4 3.2 4.8 0.00 0.00 0.00 83 1018.2
20260506230648 15 348 1.6 4.8 0.00 0.00 0.00 83 1018.2
20260506225905 15 347 1.6 3.2 0.00 0.00 0.00 83 1018.4
20260506225150 15 340 0.0 6.4 0.00 0.00 0.00 83 1018.4
20260506224850 15 334 1.6 4.8 0.00 0.00 0.00 82 1018.5
20260506224741 15 355 1.6 6.4 0.00 0.00 0.00 83 1018.5
20260506223648 15 306 1.6 4.8 0.00 0.00 0.00 82 1018.6
20260506223150 15 321 0.0 3.2 0.00 0.00 0.00 82 1018.7
20260506222909 16 321 0.0 4.8 0.00 0.00 0.00 81 1018.6
20260506222414 16 265 1.6 4.8 0.00 0.00 0.00 81 1018.7
20260506221648 16 348 1.6 3.2 0.00 0.00 0.00 81 1018.7
20260506221148 16 347 0.0 3.2 0.00 0.00 0.00 81 1018.8
20260506220647 16 324 0.0 3.2 0.00 0.00 0.00 80 1018.9
20260506220635 16 262 0.0 3.2 0.00 0.00 0.00 79 1018.9
20260506215647 16 333 0.0 4.8 0.00 0.00 0.00 80 1019.0
20260506215148 16 345 1.6 4.8 0.00 0.00 0.00 79 1019.0
20260506214647 16 357 1.6 3.2 0.00 0.00 0.00 79 1019.0
20260506214148 17 340 0.0 3.2 0.00 0.00 0.00 78 1019.0
20260506213646 17 279 0.0 3.2 0.00 0.00 0.00 79 1019.0
20260506213414 17 340 1.6 3.2 0.00 0.00 0.00 78 1019.1
20260506212646 17 289 0.0 3.2 0.00 0.00 0.00 76 1019.0
20260506212148 17 321 0.0 4.8 0.00 0.00 0.00 76 1019.0
20260506211646 17 312 0.0 4.8 0.00 0.00 0.00 77 1019.0
20260506211147 17 351 1.6 3.2 0.00 0.00 0.00 77 1019.0
20260506210644 17 347 0.0 3.2 0.00 0.00 0.00 77 1019.0
20260506210145 17 357 0.0 3.2 0.00 0.00 0.00 77 1019.0
20260506205644 17 333 0.0 3.2 0.00 0.00 0.00 77 1019.0
20260506205146 17 309 1.6 3.2 0.00 0.00 0.00 77 1019.1
20260506204645 17 337 1.6 3.2 0.00 0.00 0.00 76 1019.1
20260506204146 17 345 0.0 3.2 0.00 0.00 0.00 76 1019.1
20260506203903 17 351 1.6 3.2 0.00 0.00 0.00 75 1019.1
20260506203146 17 274 0.0 3.2 0.00 0.00 0.00 75 1019.2
20260506202645 18 283 0.0 3.2 0.00 0.00 0.00 75 1019.2
20260506202144 18 293 0.0 3.2 0.00 0.00 0.00 74 1019.3
20260506201643 18 350 0.0 3.2 0.00 0.00 0.00 75 1019.2
20260506201145 18 343 0.0 4.8 0.00 0.00 0.00 73 1019.2
20260506200644 18 279 0.0 4.8 0.00 0.00 0.00 72 1019.2
20260506200146 18 329 0.0 4.8 0.00 0.00 0.00 75 1019.2
20260506195645 18 343 1.6 3.2 0.00 0.00 0.00 74 1019.3
20260506195146 18 264 0.0 3.2 0.00 0.00 0.00 73 1019.3
20260506194644 18 309 0.0 1.6 0.00 0.00 0.00 74 1019.3
20260506194403 18 320 0.0 3.2 0.00 0.00 0.00 74 1019.4
20260506193641 18 266 0.0 3.2 0.00 0.00 0.00 74 1019.4
20260506193144 18 285 0.0 3.2 0.00 0.00 0.00 74 1019.4
20260506192642 18 269 0.0 3.2 0.00 0.00 0.00 72 1019.4
20260506192145 18 319 0.0 3.2 0.00 0.00 0.00 74 1019.5
20260506191905 18 341 0.0 3.2 0.00 0.00 0.00 73 1019.4
20260506191144 18 353 0.0 1.6 0.00 0.00 0.00 73 1019.5
20260506190643 18 293 0.0 3.2 0.00 0.00 0.00 73 1019.6
20260506190404 18 319 0.0 3.2 0.00 0.00 0.00 74 1019.6
20260506185914 18 324 0.0 1.6 0.00 0.00 0.00 74 1019.5
20260506185143 18 321 0.0 1.6 0.00 0.00 0.00 75 1019.5
20260506184643 17 310 0.0 1.6 0.00 0.00 0.00 77 1019.4
20260506184143 17 329 0.0 1.6 0.00 0.00 0.00 77 1019.5
20260506183643 17 333 0.0 3.2 0.00 0.00 0.00 77 1019.6
20260506183144 17 336 0.0 3.2 0.00 0.00 0.00 77 1019.6
20260506182643 16 1 0.0 3.2 0.00 0.00 0.00 79 1019.6
20260506182144 16 18 1.6 3.2 0.00 0.00 0.00 79 1019.6
20260506181642 16 278 0.0 3.2 0.00 0.00 0.00 81 1019.6
20260506181144 16 309 0.0 1.6 0.00 0.00 0.00 80 1019.5
20260506180640 16 337 0.0 1.6 0.00 0.00 0.00 81 1019.5
20260506180141 15 319 0.0 1.6 0.00 0.00 0.00 80 1019.5
20260506175640 15 334 0.0 1.6 0.00 0.00 0.00 81 1019.4
20260506175403 15 333 0.0 1.6 0.00 0.00 0.00 81 1019.4
20260506174641 15 334 0.0 1.6 0.00 0.00 0.00 81 1019.5
20260506174143 15 293 0.0 1.6 0.00 0.00 0.00 81 1019.5
20260506173903 15 341 0.0 3.2 0.00 0.00 0.00 81 1019.4
20260506173143 15 347 1.6 3.2 0.00 0.00 0.00 82 1019.4
20260506172641 15 312 0.0 1.6 0.00 0.00 0.00 83 1019.4
20260506172143 15 302 0.0 1.6 0.00 0.00 0.00 83 1019.4
20260506171641 15 330 0.0 1.6 0.00 0.00 0.00 83 1019.4
20260506171142 15 314 0.0 0.0 0.00 0.00 0.00 84 1019.4
20260506170641 15 314 0.0 1.6 0.00 0.00 0.00 84 1019.5
20260506170142 15 272 0.0 1.6 0.00 0.00 0.00 84 1019.4
20260506165640 15 347 0.0 1.6 0.00 0.00 0.00 84 1019.5
20260506165141 15 348 0.0 1.6 0.00 0.00 0.00 84 1019.4
20260506164905 15 347 0.0 0.0 0.00 0.00 0.00 85 1019.4
20260506164142 15 314 0.0 0.0 0.00 0.00 0.00 85 1019.4
20260506163642 15 313 0.0 0.0 0.00 0.00 0.00 85 1019.4
20260506163141 14 7 0.0 1.6 0.00 0.00 0.00 85 1019.4
20260506162640 14 7 0.0 1.6 0.00 0.00 0.00 85 1019.4
20260506162409 14 358 0.0 0.0 0.00 0.00 0.00 86 1019.4
20260506161639 14 358 0.0 1.6 0.00 0.00 0.00 86 1019.4
20260506161141 14 358 0.0 1.6 0.00 0.00 0.00 87 1019.3
20260506160639 13 285 0.0 0.0 0.00 0.00 0.00 87 1019.3
20260506160141 13 282 0.0 0.0 0.00 0.00 0.00 87 1019.4
20260506155639 13 282 0.0 0.0 0.00 0.00 0.00 88 1019.5
20260506155140 13 282 0.0 0.0 0.00 0.03 0.00 88 1019.4
20260506154639 13 282 0.0 0.0 0.00 0.03 0.00 88 1019.4
20260506154141 13 282 0.0 0.0 0.00 0.03 0.00 88 1019.4
20260506153638 13 282 0.0 0.0 0.00 0.03 0.00 88 1019.3
20260506153631 13 282 0.0 0.0 0.00 0.03 0.00 88 1019.3
20260506152638 13 282 0.0 0.0 0.00 0.03 0.00 89 1019.3
20260506152140 13 282 0.0 0.0 0.00 0.03 0.00 88 1019.3
20260506151639 13 282 0.0 0.0 0.00 0.03 0.00 88 1019.3
20260506151139 13 282 0.0 0.0 0.00 0.03 0.00 89 1019.2
20260506150903 13 282 0.0 0.0 0.00 0.03 0.00 89 1019.2
20260506150139 13 282 0.0 0.0 0.00 0.03 0.00 89 1019.2
20260506145637 13 282 0.0 0.0 0.00 0.03 0.00 89 1019.1
20260506145138 13 282 0.0 0.0 0.00 0.03 0.00 89 1019.1
20260506144637 13 145 0.0 0.0 0.00 0.03 0.00 89 1019.1
20260506144138 13 145 0.0 0.0 0.00 0.03 0.00 89 1019.0
20260506143903 13 147 0.0 0.0 0.00 0.03 0.00 89 1019.1
20260506143139 12 145 0.0 0.0 0.00 0.03 0.00 90 1019.1
20260506142636 12 145 0.0 0.0 0.00 0.03 0.00 90 1019.1
20260506142140 12 145 0.0 0.0 0.00 0.03 0.00 90 1019.0
20260506141636 -17 0.0 0.0 0.00 0.03 0.00 1019.0
20260506141137 -17 0.0 0.0 0.00 0.03 0.00 1018.9
20260506140633 -17 0.0 0.0 0.00 0.03 0.00 1018.9
20260506140135 -17 0.0 0.0 0.00 0.03 0.00 1018.8
20260506135633 -17 0.0 0.0 0.00 0.03 0.00 1018.7
20260506135132 -17 0.0 0.0 0.00 0.03 0.00 1018.7
20260506134628 -17 0.0 0.0 0.00 0.03 0.00 1018.6
20260506134129 -17 0.0 0.0 0.00 0.03 0.00 1018.6
20260506133626 -17 0.0 0.0 0.00 0.03 0.00 1018.6
20260506133127 -17 0.0 0.0 0.00 0.03 0.00 1018.6
20260506132624 -17 0.0 0.0 0.00 0.03 0.00 1018.4
20260506132341 -17 0.0 0.0 0.00 0.03 0.00 1018.4
20260506131622 -17 0.0 0.0 0.00 0.03 0.00 1018.4
20260506131122 -17 0.0 0.0 0.00 0.03 0.00 1018.3
20260506130620 -17 0.0 0.0 0.00 0.03 0.00 1018.3
20260506130121 -17 0.0 0.0 0.00 0.03 0.00 1018.3
20260506125617 -17 0.0 0.0 0.00 0.03 0.00 1018.3
20260506125118 -17 0.0 0.0 0.00 0.03 0.00 1018.3
20260506124614 13 162 0.0 0.0 0.00 0.03 0.00 100 1018.3
20260506124339 13 162 0.0 0.0 0.00 0.03 0.00 100 1018.2
20260506123613 12 162 0.0 0.0 0.00 0.03 0.00 90 1018.2
20260506123115 12 162 0.0 0.0 0.00 0.03 0.00 90 1018.2
20260506122613 12 162 0.0 0.0 0.00 0.03 0.00 90 1018.1
20260506122345 12 162 0.0 0.0 0.00 0.03 0.00 90 1018.1
20260506121613 12 162 0.0 0.0 0.00 0.03 0.00 90 1018.0
20260506121114 12 162 0.0 0.0 0.00 0.03 0.00 90 1018.0
20260506120835 12 162 0.0 0.0 0.00 0.03 0.00 90 1018.0
20260506120114 12 162 0.0 0.0 0.00 0.03 0.00 90 1017.9
20260506115612 12 162 0.0 0.0 0.00 0.03 0.00 90 1018.0
20260506115116 12 162 0.0 0.0 0.00 0.03 0.00 90 1017.9
20260506114612 12 162 0.0 0.0 0.00 0.03 0.00 90 1017.8
20260506114113 12 162 0.0 0.0 0.00 0.03 0.00 90 1017.8
20260506113612 12 162 0.0 0.0 0.00 0.03 0.00 90 1017.9
20260506113113 12 162 0.0 0.0 0.00 0.03 0.00 90 1017.9
20260506112612 12 162 0.0 0.0 0.00 0.03 0.00 90 1017.9
20260506112113 12 162 0.0 0.0 0.00 0.03 0.00 89 1017.8
20260506111613 12 162 0.0 0.0 0.00 0.03 0.00 89 1017.7
20260506111113 12 162 0.0 0.0 0.00 0.03 0.00 89 1017.7
20260506110837 12 162 0.0 0.0 0.00 0.03 0.00 89 1017.7
20260506110113 12 162 0.0 0.0 0.00 0.03 0.00 89 1017.7
20260506105611 12 162 0.0 0.0 0.00 0.03 0.00 89 1017.7
20260506105113 12 162 0.0 0.0 0.00 0.03 0.00 89 1017.6
20260506104611 12 162 0.0 0.0 0.00 0.03 0.00 89 1017.6
20260506104112 12 162 0.0 0.0 0.00 0.03 0.00 89 1017.7
20260506103610 12 162 0.0 0.0 0.00 0.03 0.00 89 1017.7
20260506103338 12 162 0.0 0.0 0.00 0.03 0.00 89 1017.6
20260506102611 12 162 0.0 0.0 0.00 0.03 0.00 89 1017.6
20260506102111 12 162 0.0 0.0 0.00 0.03 0.00 89 1017.6
20260506101610 12 162 0.0 0.0 0.00 0.03 0.00 89 1017.6
20260506101112 12 162 0.0 0.0 0.00 0.03 0.00 89 1017.6
20260506100610 12 162 0.0 0.0 0.00 0.03 0.00 89 1017.6
20260506100111 12 162 0.0 0.0 0.00 0.03 0.00 89 1017.5
20260506095610 12 162 0.0 0.0 0.00 0.03 0.00 89 1017.6
20260506095111 12 162 0.0 0.0 0.00 0.05 0.00 89 1017.6
20260506094610 12 162 0.0 0.0 0.00 0.05 0.00 89 1017.6
20260506094559 12 162 0.0 0.0 0.00 0.05 0.00 89 1017.7
20260506093609 12 162 0.0 0.0 0.00 0.05 0.00 89 1017.6
20260506093112 12 162 0.0 0.0 0.00 0.05 0.00 89 1017.5
20260506092609 12 162 0.0 0.0 0.00 0.05 0.00 89 1017.6
20260506092558 12 162 0.0 0.0 0.00 0.05 0.00 89 1017.5
20260506091609 12 162 0.0 0.0 0.00 0.05 0.00 89 1017.6
20260506091110 12 162 0.0 0.0 0.00 0.05 0.00 89 1017.5
20260506090609 12 162 0.0 0.0 0.00 0.05 0.00 89 1017.5
20260506090110 12 162 0.0 0.0 0.00 0.05 0.00 89 1017.5
20260506085609 13 162 0.0 0.0 0.00 0.05 0.00 89 1017.5
20260506085109 13 162 0.0 0.0 0.00 0.05 0.00 89 1017.5
20260506084608 13 166 0.0 0.0 0.00 0.05 0.00 89 1017.5
20260506084329 13 166 0.0 0.0 0.00 0.08 0.00 89 1017.5
20260506083608 13 166 0.0 0.0 0.00 0.10 0.00 89 1017.6
20260506083109 13 166 0.0 0.0 0.00 0.10 0.00 89 1017.6
20260506082608 13 166 0.0 0.0 0.00 0.13 0.00 89 1017.6
20260506082110 13 166 0.0 0.0 0.00 0.13 0.00 89 1017.7
20260506081607 13 166 0.0 0.0 0.00 0.13 0.00 89 1017.7
20260506081109 13 166 0.0 0.0 0.00 0.15 0.00 89 1017.7
20260506080608 13 166 0.0 0.0 0.00 0.15 0.00 89 1017.7
20260506080108 13 166 0.0 0.0 0.00 0.15 0.00 89 1017.7